カタログに戻る

PAKTES 1A

運用中科学SSO
NORAD 43529·PAYLOAD·🇵🇰 Pakistan

打ち上げ Jul 9, 2018 から Jiuquan Satellite Launch Center

Loading…

次のパス (今後24時間)

TLE

最新Source: Space-Track

元期: Sep 14, 2026, 21:41 UTC

1 43529U 18056A   26257.90372128  .00001473  00000-0  12514-3 0  9998
2 43529  98.1371  58.2972 0021254 176.8648 183.2711 14.99408422445369

AllMySatでPAKTES 1Aをリアルタイム追跡

Download on the App Store